Location: Zagreb
(45.8000°N, 16.0000°E)
Time: 02:54:22
(UTC+01:00)

S-56A Canister/Altair - Pass Details

Date: 03 October 2020
Orbit: 633 x 2499 km, 38.9° (Epoch: 25 October)

Event Time Altitude Azimuth Distance (km) Brightness Sun altitude
Rises 20:50:22 0° 283° (WNW) 5,988 13.4 -24.6°
Reaches altitude 10° 20:55:54 10° 269° (W) 4,746 12.4 -25.5°
Maximum altitude 21:04:07 20° 230° (SW) 3,485 11.1 -26.8°
Drops below altitude 10° 21:10:49 10° 187° (S) 3,734 10.8 -27.9°
Enters shadow 21:12:00 - 181° (S) 3,916 10.9 -28.1°
